ZY 3 04

基本信息
目录编号:
67131
目录名称:
ZY 3 04
国际标识:
2025-300A
轨道中心:
EARTH
卫星名称:
ZY 3 04
卫星全名:
ZY 3 04
卫星状态:
在轨 (已飞行3 天)
发射日期:
2025-12-16 UTC
国别 :
中国 (PRC)
星等 :
--
轨道信息
数据来源 国际轨道数据
星历时间: 2025-12-16T13:54:34+0800
3天前
查看轨道信息
半长轴: 6870.042km
偏心率: 0.0011082
轨道倾角: 97.501°
近地点辐角 268.618°
升交点赤经 64.334°
平近点角 91.379°
近地点: 484.293km
远地点: 499.521km
周期: 94.449分钟
每日圈数: 15.246275
详细信息
使用方式:
暂无
2D轨道图
3D轨道图
轨道高度分析图
轨道倾角分析图
轨道综合分析图
查看轨道综合分析图